owner,sensor,date,latitude,longitude,vertical_datum,direction_of_sea_water_velocity,sea_water_speed,upward_sea_water_velocity,qcFlag 
TABS,ioos:station:wmo:42043:1,2019-03-01T05:30:00Z,28.9818,-94.9186,-2.0,239.3,74.27,-99999.0,'1111122,1111122,1199999999' 
TABS,ioos:station:wmo:42043:1,2019-03-01T07:00:00Z,28.9818,-94.9186,-2.0,238.3,87.67,-99999.0,'1111122,1111122,1199999999' 
TABS,ioos:station:wmo:42043:1,2019-03-01T08:00:00Z,28.9818,-94.9186,-2.0,240.4,90.21,-99999.0,'1111122,1111122,1199999999' 
TABS,ioos:station:wmo:42043:1,2019-03-01T09:00:00Z,28.9818,-94.9186,-2.0,240.8,93.1,-99999.0,'1111122,1111122,1199999999' 
TABS,ioos:station:wmo:42043:1,2019-03-01T10:00:00Z,28.9818,-94.9186,-2.0,243.5,89.46,-99999.0,'1111122,1111122,1199999999' 
TABS,ioos:station:wmo:42043:1,2019-03-01T11:00:00Z,28.9818,-94.9186,-2.0,244.3,84.89,-99999.0,'1111122,1111122,1199999999' 
TABS,ioos:station:wmo:42043:1,2019-03-01T12:00:00Z,28.9818,-94.9186,-2.0,247.7,81.75,-99999.0,'1111122,1111122,1199999999' 
TABS,ioos:station:wmo:42043:1,2019-03-01T13:00:00Z,28.9818,-94.9186,-2.0,251.8,70.37,-99999.0,'1111122,1111122,1199999999' 
TABS,ioos:station:wmo:42043:1,2019-03-01T13:30:00Z,28.9818,-94.9186,-2.0,252.2,68.46,-99999.0,'1111122,1111122,1199999999' 
TABS,ioos:station:wmo:42043:1,2019-03-01T15:00:00Z,28.9818,-94.9186,-2.0,256.7,63.72,-99999.0,'1111122,1111122,1199999999' 
TABS,ioos:station:wmo:42043:1,2019-03-01T16:00:00Z,28.9818,-94.9186,-2.0,254.7,61.1,-99999.0,'1111122,1111122,1199999999' 
TABS,ioos:station:wmo:42043:1,2019-03-01T17:00:00Z,28.9818,-94.9186,-2.0,253.0,55.43,-99999.0,'1111122,1111122,1199999999' 
TABS,ioos:station:wmo:42043:1,2019-03-01T18:00:00Z,28.9818,-94.9186,-2.0,245.9,57.29,-99999.0,'1111122,1111122,1199999999' 
TABS,ioos:station:wmo:42043:1,2019-03-01T19:00:00Z,28.9818,-94.9186,-2.0,238.2,51.22,-99999.0,'1111122,1111122,1199999999' 
TABS,ioos:station:wmo:42043:1,2019-03-01T20:00:00Z,28.9818,-94.9186,-2.0,229.9,56.49,-99999.0,'1111122,1111122,1199999999' 
TABS,ioos:station:wmo:42043:1,2019-03-01T21:00:00Z,28.9818,-94.9186,-2.0,227.7,66.21,-99999.0,'1111122,1111122,1199999999' 
TABS,ioos:station:wmo:42043:1,2019-03-01T22:00:00Z,28.9818,-94.9186,-2.0,224.1,70.8,-99999.0,'1111122,1111122,1199999999' 
TABS,ioos:station:wmo:42043:1,2019-03-01T23:00:00Z,28.9818,-94.9186,-2.0,220.5,76.09,-99999.0,'1111122,1111122,1199999999' 
TABS,ioos:station:wmo:42043:1,2019-03-01T23:30:00Z,28.9818,-94.9186,-2.0,219.7,79.94,-99999.0,'1111122,1111122,1199999999' 
TABS,ioos:station:wmo:42043:1,2019-03-02T05:00:00Z,28.9818,-94.9186,-2.0,222.9,66.97,-99999.0,'1111122,1111122,1199999999' 
TABS,ioos:station:wmo:42043:1,2019-03-02T06:00:00Z,28.9818,-94.9186,-2.0,223.4,60.66,-99999.0,'1111122,1111122,1199999999' 
TABS,ioos:station:wmo:42043:1,2019-03-02T07:00:00Z,28.9818,-94.9186,-2.0,217.8,65.17,-99999.0,'1111122,1111122,1199999999' 
TABS,ioos:station:wmo:42043:1,2019-03-02T08:00:00Z,28.9818,-94.9186,-2.0,218.8,63.38,-99999.0,'1111122,1111122,1199999999' 
TABS,ioos:station:wmo:42043:1,2019-03-02T09:00:00Z,28.9818,-94.9186,-2.0,219.9,68.0,-99999.0,'1111122,1111122,1199999999' 
TABS,ioos:station:wmo:42043:1,2019-03-02T10:00:00Z,28.9818,-94.9186,-2.0,214.8,64.14,-99999.0,'1111122,1111122,1199999999' 
TABS,ioos:station:wmo:42043:1,2019-03-02T11:00:00Z,28.9818,-94.9186,-2.0,212.2,68.75,-99999.0,'1111122,1111122,1199999999' 
TABS,ioos:station:wmo:42043:1,2019-03-02T12:00:00Z,28.9818,-94.9186,-2.0,215.3,80.51,-99999.0,'1111122,1111122,1199999999' 
TABS,ioos:station:wmo:42043:1,2019-03-02T13:00:00Z,28.9818,-94.9186,-2.0,227.4,86.35,-99999.0,'1111122,1111122,1199999999' 
TABS,ioos:station:wmo:42043:1,2019-03-02T14:00:00Z,28.9818,-94.9186,-2.0,234.8,82.24,-99999.0,'1111122,1111122,1199999999' 
TABS,ioos:station:wmo:42043:1,2019-03-02T15:00:00Z,28.9818,-94.9186,-2.0,238.9,71.72,-99999.0,'1111122,1111122,1199999999' 
TABS,ioos:station:wmo:42043:1,2019-03-02T16:00:00Z,28.9818,-94.9186,-2.0,252.5,54.24,-99999.0,'1111122,1111122,1199999999' 
TABS,ioos:station:wmo:42043:1,2019-03-02T17:00:00Z,28.9818,-94.9186,-2.0,272.9,44.87,-99999.0,'1111122,1111122,1199999999' 
TABS,ioos:station:wmo:42043:1,2019-03-02T18:00:00Z,28.9818,-94.9186,-2.0,273.0,42.32,-99999.0,'1111122,1111122,1199999999' 
TABS,ioos:station:wmo:42043:1,2019-03-02T19:00:00Z,28.9818,-94.9186,-2.0,276.9,40.8,-99999.0,'1111122,1111122,1199999999' 
TABS,ioos:station:wmo:42043:1,2019-03-02T20:00:00Z,28.9818,-94.9186,-2.0,266.8,39.09,-99999.0,'1111122,1111122,1199999999' 
TABS,ioos:station:wmo:42043:1,2019-03-02T21:00:00Z,28.9818,-94.9186,-2.0,262.4,45.86,-99999.0,'1111122,1111122,1199999999' 
TABS,ioos:station:wmo:42043:1,2019-03-02T22:00:00Z,28.9818,-94.9186,-2.0,257.7,41.66,-99999.0,'1111122,1111122,1199999999' 
TABS,ioos:station:wmo:42043:1,2019-03-02T23:00:00Z,28.9818,-94.9186,-2.0,255.6,38.24,-99999.0,'1111122,1111122,1199999999' 
TABS,ioos:station:wmo:42043:1,2019-03-02T23:30:00Z,28.9818,-94.9186,-2.0,255.6,38.75,-99999.0,'1111122,1111122,1199999999' 
TABS,ioos:station:wmo:42043:1,2019-03-03T06:00:00Z,28.9818,-94.9186,-2.0,240.6,31.67,-99999.0,'1111122,1111122,1199999999' 
TABS,ioos:station:wmo:42043:1,2019-03-03T07:00:00Z,28.9818,-94.9186,-2.0,247.0,37.68,-99999.0,'1111122,1111122,1199999999' 
TABS,ioos:station:wmo:42043:1,2019-03-03T08:00:00Z,28.9818,-94.9186,-2.0,241.2,39.96,-99999.0,'1111122,1111122,1199999999' 
TABS,ioos:station:wmo:42043:1,2019-03-03T09:00:00Z,28.9818,-94.9186,-2.0,234.8,45.55,-99999.0,'1111122,1111122,1199999999' 
TABS,ioos:station:wmo:42043:1,2019-03-03T09:30:00Z,28.9818,-94.9186,-2.0,234.0,47.74,-99999.0,'1111122,1111122,1199999999' 
TABS,ioos:station:wmo:42043:1,2019-03-03T11:00:00Z,28.9818,-94.9186,-2.0,223.9,73.22,-99999.0,'1111122,1111122,1199999999' 
TABS,ioos:station:wmo:42043:1,2019-03-03T12:00:00Z,28.9818,-94.9186,-2.0,227.3,75.56,-99999.0,'1111122,1111122,1199999999' 
TABS,ioos:station:wmo:42043:1,2019-03-03T13:00:00Z,28.9818,-94.9186,-2.0,228.4,78.44,-99999.0,'1111122,1111122,1199999999' 
TABS,ioos:station:wmo:42043:1,2019-03-03T14:00:00Z,28.9818,-94.9186,-2.0,229.4,72.57,-99999.0,'1111122,1111122,1199999999' 
TABS,ioos:station:wmo:42043:1,2019-03-03T15:00:00Z,28.9818,-94.9186,-2.0,229.1,69.67,-99999.0,'1111122,1111122,1199999999' 
TABS,ioos:station:wmo:42043:1,2019-03-03T16:00:00Z,28.9818,-94.9186,-2.0,225.1,64.3,-99999.0,'1111122,1111122,1199999999' 
TABS,ioos:station:wmo:42043:1,2019-03-03T17:00:00Z,28.9818,-94.9186,-2.0,223.1,49.99,-99999.0,'1111122,1111122,1199999999' 
TABS,ioos:station:wmo:42043:1,2019-03-03T18:00:00Z,28.9818,-94.9186,-2.0,215.4,56.17,-99999.0,'1111122,1111122,1199999999' 
TABS,ioos:station:wmo:42043:1,2019-03-03T19:00:00Z,28.9818,-94.9186,-2.0,205.9,74.81,-99999.0,'1111122,1111122,1199999999' 
TABS,ioos:station:wmo:42043:1,2019-03-03T20:00:00Z,28.9818,-94.9186,-2.0,207.8,77.36,-99999.0,'1111122,1111122,1199999999' 
TABS,ioos:station:wmo:42043:1,2019-03-03T21:00:00Z,28.9818,-94.9186,-2.0,209.1,82.41,-99999.0,'1111122,1111122,1199999999' 
TABS,ioos:station:wmo:42043:1,2019-03-03T22:00:00Z,28.9818,-94.9186,-2.0,213.3,76.48,-99999.0,'1111122,1111122,1199999999' 
TABS,ioos:station:wmo:42043:1,2019-03-03T23:00:00Z,28.9818,-94.9186,-2.0,215.4,66.66,-99999.0,'1111122,1111122,1199999999' 
TABS,ioos:station:wmo:42043:1,2019-03-03T23:30:00Z,28.9818,-94.9186,-2.0,212.6,66.18,-99999.0,'1111122,1111122,1199999999' 
TABS,ioos:station:wmo:42043:1,2019-03-04T05:00:00Z,28.9818,-94.9186,-2.0,227.8,31.59,-99999.0,'1111122,1111122,1199999999' 
TABS,ioos:station:wmo:42043:1,2019-03-04T06:00:00Z,28.9818,-94.9186,-2.0,225.5,26.19,-99999.0,'1111122,1111122,1199999999' 
TABS,ioos:station:wmo:42043:1,2019-03-04T07:00:00Z,28.9818,-94.9186,-2.0,222.8,38.97,-99999.0,'1111122,1111122,1199999999' 
TABS,ioos:station:wmo:42043:1,2019-03-04T08:00:00Z,28.9818,-94.9186,-2.0,219.1,52.69,-99999.0,'1111122,1111122,1199999999' 
TABS,ioos:station:wmo:42043:1,2019-03-04T09:00:00Z,28.9818,-94.9186,-2.0,236.1,60.84,-99999.0,'1111122,1111122,1199999999' 
TABS,ioos:station:wmo:42043:1,2019-03-04T10:00:00Z,28.9818,-94.9186,-2.0,232.1,71.24,-99999.0,'1111122,1111122,1199999999' 
TABS,ioos:station:wmo:42043:1,2019-03-04T11:00:00Z,28.9818,-94.9186,-2.0,238.0,54.27,-99999.0,'1111122,1111122,1199999999' 
TABS,ioos:station:wmo:42043:1,2019-03-04T12:00:00Z,28.9818,-94.9186,-2.0,242.0,52.47,-99999.0,'1111122,1111122,1199999999' 
TABS,ioos:station:wmo:42043:1,2019-03-04T13:00:00Z,28.9818,-94.9186,-2.0,246.3,57.2,-99999.0,'1111122,1111122,1199999999' 
TABS,ioos:station:wmo:42043:1,2019-03-04T14:00:00Z,28.9818,-94.9186,-2.0,250.6,46.2,-99999.0,'1111122,1111122,1199999999' 
TABS,ioos:station:wmo:42043:1,2019-03-04T15:00:00Z,28.9818,-94.9186,-2.0,247.3,50.21,-99999.0,'1111122,1111122,1199999999' 
TABS,ioos:station:wmo:42043:1,2019-03-04T16:00:00Z,28.9818,-94.9186,-2.0,250.3,47.4,-99999.0,'1111122,1111122,1199999999' 
TABS,ioos:station:wmo:42043:1,2019-03-04T17:00:00Z,28.9818,-94.9186,-2.0,254.2,40.93,-99999.0,'1111122,1111122,1199999999' 
TABS,ioos:station:wmo:42043:1,2019-03-04T18:00:00Z,28.9818,-94.9186,-2.0,246.8,55.74,-99999.0,'1111122,1111122,1199999999' 
TABS,ioos:station:wmo:42043:1,2019-03-04T19:00:00Z,28.9818,-94.9186,-2.0,251.7,43.36,-99999.0,'1111122,1111122,1199999999' 
TABS,ioos:station:wmo:42043:1,2019-03-04T20:00:00Z,28.9818,-94.9186,-2.0,254.2,38.47,-99999.0,'1111122,1111122,1199999999' 
TABS,ioos:station:wmo:42043:1,2019-03-04T21:00:00Z,28.9818,-94.9186,-2.0,239.0,46.51,-99999.0,'1111122,1111122,1199999999' 
TABS,ioos:station:wmo:42043:1,2019-03-04T22:00:00Z,28.9818,-94.9186,-2.0,241.4,47.23,-99999.0,'1111122,1111122,1199999999' 
TABS,ioos:station:wmo:42043:1,2019-03-04T23:00:00Z,28.9818,-94.9186,-2.0,238.6,58.87,-99999.0,'1111122,1111122,1199999999' 
TABS,ioos:station:wmo:42043:1,2019-03-04T23:30:00Z,28.9818,-94.9186,-2.0,234.6,64.59,-99999.0,'1111122,1111122,1199999999' 
TABS,ioos:station:wmo:42043:1,2019-03-05T04:30:00Z,28.9818,-94.9186,-2.0,234.7,54.63,-99999.0,'1111122,1111122,1199999999' 
TABS,ioos:station:wmo:42043:1,2019-03-05T05:30:00Z,28.9818,-94.9186,-2.0,231.2,46.45,-99999.0,'1111122,1111122,1199999999' 
 
DISCLAIMER: The Gulf of Mexico Coastal and Ocean Observing (GCOOS) Data Portal aggregates data from the regional data providers for the convenience of all data users. Data published on this website should not be used for navigation or certain other uses as we cannot guarantee data accuracy or availability. The data and delivery services are provided 'as is' without warranty of any kind. Data Source: Gulf of Mexico Coastal Ocean Observing System Data Portal (http://data.gcoos.org/) 
